sat.trackr.live / text

‹ back to catalog

STARLINK-31532

NORAD 59349 · 2024-060B

PAYLOAD ACTIVE UNKNOWN

§ Identity

Operator
Country
US
Launch date
2024-03-31
Launch site
AFETR
Launch vehicle
Mass (kg)
RCS (m²)

Purposes: comms

External: N2YO · Heavens-Above · Gunter

§ Orbital elements

Epoch: 2026-05-25T03:09:57.875040Z

Period
94.27 min
Inclination
43.0018°
Eccentricity
0.0001362
Mean motion
15.27573810 rev/d
Perigee alt
482.1 km
Apogee alt
484.0 km
Semi-major
6,861.2 km
B*
8.9850e-5
RAAN
188.1556°
Arg perigee
269.0289°
Mean anomaly
91.0406°
Rev number
12,180

§ Raw data

STARLINK-315321 59349U 24060B   26145.13191985  .00002211  00000+0  89850-4 0  99962 59349  43.0018 188.1556 0001362 269.0289  91.0406 15.27573810121801

JSON: /api/v1/satellites/59349 · /tle

For live sub-satellite position, see the globe view (requires WebGL).

§ Visibility from observer

Set your observer location to see the next 7 days of passes ≥ 10°. The values pass through the URL so the page stays shareable.

No JS? Fill the form by hand. The geolocation button needs JavaScript.